Reflectivity
1 4 -20 -20 -20 -20 -20 22 -20 -20 4 26 -15 4 -2 -20 -20 -20 -20 -20 -16 10 1 11 7 -20 -17 -19 16 27 19 20 9 29 12 -13 9 -8 -20 -5 19 24 23
17 15 0 6 6 1 -2 19 15 18 23 25 23 28 -10 -20 -20 -20 -20 -20 -15 3 -19 -12 -20 -20 -20 -20 10 21 18 26 23 16 -20 -20 -20 -12 -20 10 24 23 24
-19 11 17 13 17 11 14 -11 -12 2 13 24 21 26 25 -14 -20 -18 -14 -20 -15 -20 13 -20 -19 -17 -1 13 4 -6 25 25 17 28 11 12 9 1 -10 18 25 19 7
-20 -20 -20 -2 24 14 11 15 -1 23 24 23 25 25 26 20 -4 -7 8 -7 8 -11 4 -6 3 -14 22 21 2 19 17 29 29 29 26 30 31 24 27 17 25 27 23
-19 -20 -20 -14 4 16 22 20 24 22 23 24 23 23 14 16 7 1 0 16 -13 5 12 -7 0 7 25 10 16 30 23 26 21 29 31 25 31 29 29 24 27 30 31
-6 -2 -14 -20 1 -20 -15 2 7 15 22 22 28 29 26 16 14 8 7 -20 -20 -9 15 16 3 16 -4 23 30 -13 8 22 -5 20 20 21 16 -8 19 22 18 19 27
-20 -20 -19 -9 -2 -13 -5 0 10 17 17 18 20 37 28 -11 6 4 8 -6 -9 -9 15 14 -0 -20 15 2 13 21 18 20 7 9 -10 5 -6 6 -13 16 6 -4 -11
-20 -20 -3 15 1 4 -4 12 -2 19 30 30 40 25 28 -8 18 7 6 1 -15 -20 -19 -9 25 13 27 5 3 5 17 -12 -7 -16 -20 -20 -20 -20 -0 -17 -20 1 -8
-20 -20 -20 -12 1 1 3 24 -2 28 29 40 43 33 36 8 17 7 13 8 19 2 -20 17 13 6 20 14 -1 13 -20 -20 11 13 5 6 8 9 -6 -16 -7 -19 -20
-20 -20 -20 -20 -14 -11 6 10 21 29 33 29 35 30 33 41 25 20 21 19 3 20 28 17 14 6 16 15 -4 -20 -19 -20 -20 -20 -13 7 7 8 14 -11 -20 -20 -3
-20 -20 -20 -20 -20 -17 -3 9 18 23 30 39 39 38 35 38 32 26 29 26 34 31 26 17 30 18 16 15 17 -7 9 11 13 7 25 14 -19 -13 -20 -1 12 28 30
-20 -20 -20 -20 -20 -20 -20 -6 6 19 18 22 26 32 27 36 38 36 30 34 33 20 27 31 35 37 30 32 29 31 32 26 17 4 -3 4 -2 16 16 23 31 23 32
-7 -20 -20 -20 -20 -20 -20 -20 -3 2 -8 4 -4 11 17 24 27 29 28 31 29 27 23 29 31 29 34 38 34 26 21 19 24 23 21 7 18 22 24 26 26 26 26
-20 -4 -20 -20 -20 -20 -20 -20 -20 -20 -2 11 -11 -14 -4 2 16 23 25 25 26 28 21 20 22 24 23 22 22 22 22 24 19 18 7 17 23 22 20 19 20 13 17
-20 -20 -4 -20 -20 -20 -20 -6 -19 -5 -3 -19 -20 -20 -20 -17 9 1 2 9 16 19 19 16 14 17 18 16 16 18 22 23 22 23 17 9 8 -5 -13 -17 -13 -3 -13
-20 -20 -20 -20 -20 -20 -20 -20 -19 -9 -10 -4 3 -20 -19 -7 -18 -14 -20 -12 -2 2 6 6 10 14 13 11 8 13 18 19 18 14 10 7 9 8 -4 6 11 13 9
-20 -20 -20 -20 -20 -20 -20 -20 -20 -20 -20 -20 -7 -11 -17 -20 -20 -20 -20 -20 -20 -17 -11 4 6 9 11 9 8 13 15 17 17 18 18 17 16 16 16 17 16 15 12
-20 -20 -20 -20 -20 -20 -20 -20 -20 -20 -20 -20 -20 -20 -5 -20 -20 -20 -20 -20 -20 -20 -20 -20 -20 -20 -7 3 5 7 7 8 6 5 6 8 11 12 9 5 -1 -5 -1
-20 -20 -20 -20 -20 -20 -20 -20 -20 -20 -20 -20 -20 -20 -20 -20 -20 -20 -20 -20 -20 -20 -20 -20 -20 -20 -20 -20 -20 -20 -20 -15 -9 -3 -1 -0 3 6 3 -4 -10 -13 -14
-20 -20 -20 -20 -20 -20 -20 -20 -20 -20 -20 -20 -20 -20 -20 -20 -20 -20 -20 -20 -20 -20 -20 -20 -20 -20 -20 -20 -20 -20 -20 -20 -20 -20 -20 -20 -20 -20 -20 -20 -20 -20 -20
-20 -20 -20 -20 -20 -20 -20 -20 -20 -20 -20 -20 -20 -20 -20 -20 -20 -20 -20 -20 -20 -20 -20 -20 -20 -20 -20 -20 -20 -20 -20 -20 -20 -20 -20 -20 -20 -20 -20 -20 -20 -20 -20
-20 -20 -20 -20 -20 -20 -20 -20 -20 -20 -20 -20 -20 -20 -20 -20 -20 -20 -20 -20 -20 -20 -20 -20 -20 -20 -20 -20 -20 -20 -20 -20 -20 -20 -20 -20 -20 -20 -20 -20 -20 -20 -20
-20 -20 -20 -20 -20 -20 -20 -20 -20 -20 -20 -20 -20 -20 -20 -20 -20 -20 -20 -20 -20 -20 -20 -20 -20 -20 -20 -20 -20 -20 -20 -20 -20 -20 -20 -20 -20 -20 -20 -20 -20 -20 -20
-20 -20 -20 -20 -20 -20 -20 -20 -20 -20 -20 -20 -20 -20 -20 -20 -20 -20 -20 -20 -20 -20 -20 -20 -20 -20 -20 -20 -20 -20 -20 -20 -20 -20 -20 -20 -20 -20 -20 -20 -20 -20 -20
-20 -20 -20 -20 -20 -20 -20 -20 -20 -20 -20 -20 -20 -20 -20 -20 -20 -20 -20 -20 -20 -20 -20 -20 -20 -20 -20 -20 -20 -20 -20 -20 -20 -20 -20 -20 -20 -20 -20 -20 -20 -20 -20
-20 -20 -20 -20 -20 -20 -20 -20 -20 -20 -20 -20 -20 -20 -20 -20 -20 -20 -20 -20 -20 -20 -20 -20 -20 -20 -20 -20 -20 -20 -20 -20 -20 -20 -20 -20 -20 -20 -20 -20 -20 -20 -20
Wind_Speed
16 15 15 16 10 10 10 11 12 10 12 13 15 14 13 12 11 11 9 10 11 9 7 9 9 8 7 7 5 5 5 4 6 3 6 7 6 8 6 8 7 7 7
14 14 14 15 15 5 9 11 8 12 12 13 12 13 13 13 12 12 11 10 12 11 10 10 11 7 10 8 7 9 8 7 6 8 4 4 4 7 8 9 6 6 8
15 15 15 16 15 14 9 5 8 11 12 11 11 12 13 13 12 12 12 12 12 12 11 12 11 10 11 8 9 9 8 6 8 6 5 2 2 2 3 3 4 4 3
16 16 17 17 16 15 15 6 7 9 11 12 12 12 12 11 12 12 12 11 11 11 11 12 11 12 12 12 10 12 10 9 10 8 5 3 3 3 3 5 5 4 3
17 18 18 17 16 15 16 16 12 6 9 11 11 11 12 12 9 11 11 10 11 10 10 10 10 10 12 11 7 8 8 7 6 7 6 3 5 3 8 5 8 5 3
19 19 17 18 18 17 16 16 17 16 12 7 10 10 9 6 9 6 11 10 10 10 9 9 8 10 10 11 12 9 9 8 8 4 4 5 7 6 4 6 7 4 3
16 18 20 19 18 18 16 16 17 17 16 14 13 10 10 10 12 6 5 8 9 9 8 8 7 5 8 6 10 12 12 11 4 3 7 6 6 5 5 4 5 3 3
17 17 18 18 17 17 17 17 15 14 14 13 14 12 10 10 14 4 5 4 7 7 5 3 4 6 4 6 9 7 7 8 5 4 4 4 3 3 2 1 4 6 5
17 16 16 16 16 17 18 17 13 12 14 13 11 18 12 14 18 16 9 7 9 9 8 8 4 4 2 3 10 10 8 8 13 19 18 16 16 13 4 2 3 4 2
15 14 14 15 14 15 14 16 14 11 11 8 11 12 17 12 18 18 14 8 10 6 8 10 14 4 2 7 8 10 9 5 6 5 5 10 11 12 15 7 2 3 4
13 13 15 15 14 14 12 12 13 13 12 11 12 14 14 18 18 23 17 9 7 9 8 9 8 15 13 12 11 9 8 11 9 8 7 7 8 9 8 8 8 4 2
13 14 14 14 11 11 14 12 12 11 10 12 12 11 12 13 24 25 25 21 13 10 10 7 11 21 21 19 13 18 18 14 8 8 8 8 8 8 7 9 11 11 9
10 12 12 12 13 12 13 14 11 11 10 10 9 10 10 10 10 19 24 23 20 11 9 17 20 18 20 18 22 15 12 7 7 9 9 8 6 5 4 6 7 8 12
12 11 10 10 11 13 11 10 11 10 9 9 9 9 8 8 8 8 8 8 14 11 10 11 12 12 15 12 10 12 8 7 7 8 6 6 4 3 5 4 4 4 6
11 11 9 8 8 8 9 10 9 11 12 8 8 9 8 9 10 14 11 7 7 8 7 7 8 9 9 9 9 10 9 7 8 6 5 7 6 6 5 4 5 6 6
11 10 9 7 5 6 6 5 15 18 23 24 20 11 8 16 17 17 18 18 17 14 8 8 8 8 8 7 8 8 8 9 7 6 6 6 6 6 7 7 6 7 6
9 9 7 8 6 6 6 6 6 7 15 22 23 23 21 18 17 16 17 20 19 13 8 7 7 7 7 8 7 7 7 6 6 6 6 6 6 6 6 6 6 6 6
8 9 6 5 4 4 4 4 3 5 5 6 12 17 19 20 20 19 14 13 8 11 8 8 8 7 7 7 7 6 6 6 6 6 6 5 5 5 5 6 5 5 5
7 5 5 4 4 4 4 4 4 4 3 3 4 6 10 16 18 21 19 8 7 8 7 8 7 7 6 6 6 6 6 6 6 5 5 6 5 5 5 5 6 7 5
6 8 5 4 4 4 4 4 4 5 5 5 6 6 5 7 8 8 8 7 7 6 6 7 7 6 6 6 5 5 6 7 6 6 5 5 4 4 4 4 4 4 4
4 4 6 4 4 3 2 3 3 3 3 4 5 6 9 6 6 6 6 6 6 5 5 6 5 6 6 6 6 5 6 5 5 5 4 3 3 4 4 4 4 4 4
4 4 4 4 3 4 3 2 2 2 3 3 3 5 7 5 5 5 5 4 4 4 4 5 5 5 5 5 4 3 5 4 4 4 4 4 4 4 3 3 4 3 3
4 4 5 4 3 4 4 3 3 3 3 3 3 3 3 3 3 4 3 3 4 4 4 4 5 5 5 4 4 4 4 3 2 2 2 3 3 3 2 3 2 2 3
4 5 5 4 4 3 3 3 3 3 3 2 2 2 2 2 2 2 2 2 3 3 3 3 4 4 4 3 3 3 3 2 2 2 2 2 3 3 3 3 2 2 2
4 3 4 3 4 3 3 3 3 3 3 2 1 1 2 2 2 2 1 1 2 3 3 2 2 4 5 5 5 5 5 6 4 4 2 3 5 5 3 3 3 3 3
3 3 2 3 3 3 3 3 3 2 2 2 1 1 1 2 1 1 2 1 2 2 2 1 2 4 4 2 3 4 5 5 5 6 4 3 4 4 3 3 3 2 3
Wind_Direction
346 337 335 329 253 219 203 205 201 186 194 195 192 191 186 180 175 176 177 172 187 201 193 193 198 184 189 186 175 172 181 167 202 194 214 208 192 192 189 189 174 191 216
346 344 345 344 347 250 205 209 188 192 195 197 196 192 182 181 174 180 178 180 193 198 201 198 200 185 194 190 183 194 198 193 203 223 189 194 181 197 183 175 175 199 211
354 356 358 357 353 346 308 216 191 187 189 189 188 192 187 179 177 191 189 186 193 197 202 202 205 196 199 202 202 204 205 205 211 217 216 146 173 150 156 157 169 189 192
3 7 5 2 358 351 347 312 208 200 187 183 189 188 191 185 183 190 185 190 197 201 201 205 206 201 204 203 200 206 204 203 199 205 193 162 171 169 173 199 226 207 139
6 12 10 1 8 359 7 360 337 225 202 188 181 180 179 179 184 181 183 190 195 198 201 205 208 208 207 199 194 196 199 205 207 210 200 151 172 164 207 193 218 204 148
15 9 6 9 13 12 16 17 12 4 347 200 173 177 153 92 18 183 177 188 193 194 198 201 201 197 202 200 203 198 201 201 197 185 185 200 192 193 170 191 198 161 168
14 12 10 6 11 15 19 27 31 18 9 25 29 50 54 33 6 356 225 179 185 190 188 195 194 175 189 158 100 97 71 54 50 202 200 197 191 190 154 180 178 163 145
15 14 10 7 6 12 22 19 31 29 23 20 31 31 32 24 2 20 344 110 98 81 67 70 148 140 92 144 145 106 77 52 25 31 58 68 47 16 33 167 147 102 79
17 11 8 10 10 8 11 11 11 24 34 23 9 49 25 28 20 34 68 58 70 66 55 37 16 115 83 174 144 125 102 87 73 81 81 74 65 55 49 114 130 127 126
13 8 12 13 12 13 15 7 3 8 14 23 30 40 40 22 31 52 61 70 67 51 47 42 25 354 203 131 139 142 129 117 107 76 51 49 48 46 44 38 13 135 122
17 14 15 16 13 7 14 21 18 16 10 360 34 34 40 38 30 44 55 70 81 70 45 45 33 43 68 81 103 115 120 119 100 84 70 57 47 41 35 35 31 32 92
19 20 18 17 13 9 18 14 23 27 28 15 23 30 31 38 37 44 49 54 55 76 77 58 63 60 59 65 73 97 109 115 106 94 81 61 56 48 47 51 46 53 46
19 22 16 15 18 17 19 21 23 22 19 26 25 25 25 27 28 30 45 52 46 53 60 67 58 57 64 60 57 56 71 67 87 94 94 90 78 65 41 66 54 63 62
18 20 20 18 20 24 28 24 27 20 21 22 29 28 31 30 24 28 29 29 43 46 40 43 55 53 55 56 51 49 47 51 74 81 97 96 86 85 70 41 64 53 69
19 17 16 23 23 20 20 22 29 29 33 27 20 30 30 37 37 48 48 40 44 35 51 47 49 47 47 45 46 49 47 46 60 68 75 88 89 90 62 56 57 54 67
17 14 14 12 22 22 19 12 27 39 39 39 45 46 32 48 50 49 53 53 53 48 49 45 42 41 48 50 51 47 41 39 29 46 56 58 70 82 82 69 67 70 67
13 9 9 13 13 23 19 18 10 1 33 35 35 39 39 38 42 49 54 58 55 56 56 51 53 45 42 45 44 47 51 38 43 47 49 47 56 51 72 78 84 87 78
2 5 7 1 11 13 17 20 19 21 3 10 22 29 33 38 39 38 46 49 40 39 44 45 42 38 42 43 47 43 36 38 45 47 48 49 55 61 61 66 64 77 80
6 0 355 357 4 18 14 19 21 26 23 16 5 12 13 30 43 41 43 48 47 40 35 41 37 41 41 43 43 47 49 38 35 44 42 49 40 64 67 58 68 60 65
358 359 9 7 5 14 15 21 20 27 29 24 25 14 5 31 33 28 29 32 40 39 37 45 37 38 38 39 37 35 46 38 30 37 36 34 39 58 77 77 64 73 69
343 351 357 11 13 359 29 31 17 28 28 31 23 17 35 52 37 34 35 35 36 35 33 44 41 37 34 39 38 46 54 40 31 29 30 38 32 72 68 75 74 66 66
355 351 2 355 353 9 0 38 40 34 29 35 2 33 35 49 47 46 42 29 15 30 31 54 57 46 39 40 45 47 58 51 29 17 20 28 48 55 59 70 63 49 51
4 7 3 4 355 5 16 15 40 41 39 29 26 42 37 41 43 48 44 10 39 33 22 53 63 61 46 40 35 48 59 42 10 1 31 34 52 65 60 76 87 70 59
17 12 11 3 13 11 12 4 4 48 54 65 62 47 59 58 60 57 39 11 36 28 31 49 64 75 70 42 23 30 57 43 4 28 53 81 70 61 57 66 66 70 79
25 16 15 3 7 3 6 13 23 17 22 26 31 69 80 78 72 24 4 36 63 56 54 58 61 82 72 68 54 43 29 35 35 17 33 76 79 73 63 63 52 41 45
6 17 7 1 8 4 6 2 15 22 29 10 9 16 110 119 88 331 323 104 91 71 84 80 86 80 77 72 45 37 23 24 26 20 29 58 71 55 57 67 52 52 67